[[{"header":{"parameterUnit":"m.s-1","parameterCategory":1,"la1":30.2991,"la2":30.254,"lo1":-89.0895,"lo2":-89.0444,"dy":0.0017,"dx":0.0017,"nx":28,"ny":28,"refTime":"2024-08-15T03:00:00:Z","depth":0,"parameterNumber":2,"parameterNumberName":"U-component_of_WINDS"},"data":[0,0,0,0,0,0,0,0,0,0,0,0,0,0,0,0,0,0,0,0,0,0,0,0,0,0,0,0,0,0,0,0,0,0,0,0,0,0,0,0,0,0,0,0,0,0,0,0,0,0,0,0,0,0,0,0,0,0,-0.2077,-0.2078,0,-0.2187,-0.2188,-0.2189,-0.2247,-0.2247,-0.2248,-0.2248,-0.2363,-0.2366,-0.2369,0,0,0,0,0,0,0,0,0,0,0,0,0,-0.1922,-0.1925,-0.2077,-0.2078,-0.208,-0.2186,-0.2188,-0.219,-0.2247,-0.2247,-0.2248,-0.2248,-0.2362,-0.2366,-0.2369,0,0,0,0,0,0,0,0,0,0,0,0,0,-0.2006,-0.1926,-0.2077,-0.2121,-0.2127,-0.2186,-0.2188,-0.219,-0.2247,-0.2247,-0.2248,-0.2248,-0.2361,-0.2365,-0.237,-0.2394,0,0,-0.2383,-0.2385,0,0,0,0,0,0,0,0,-0.2002,-0.2012,-0.2114,-0.2118,-0.2124,-0.2203,-0.2176,-0.2259,-0.2247,-0.2202,-0.2248,-0.2248,-0.231,-0.2319,-0.2339,-0.24,-0.2405,-0.2384,-0.2387,-0.2388,-0.239,0,0,0,0,0,0,0,-0.1996,-0.2008,-0.2121,-0.2115,-0.2122,-0.2137,-0.215,-0.2192,-0.2254,-0.2206,-0.221,-0.2222,-0.2313,-0.2335,-0.2342,-0.2407,-0.2384,-0.2388,-0.239,-0.2392,-0.2495,-0.2495,0,0,0,0,0,0,-0.1982,-0.2002,-0.2117,-0.2124,-0.2062,-0.214,-0.2154,-0.2178,-0.2253,-0.2265,-0.2222,-0.2224,-0.2327,-0.2337,-0.2347,-0.2382,-0.2388,-0.2393,-0.2395,-0.2495,-0.2495,-0.2495,0,0,0,0,0,0,-0.1979,-0.1992,-0.2113,-0.2064,-0.2081,-0.2143,-0.2169,-0.218,-0.2202,-0.2266,-0.2277,-0.2232,-0.2327,-0.234,-0.2382,-0.2386,-0.2395,-0.2399,-0.2495,-0.2495,-0.2495,-0.2451,0,0,0,0,0,0,-0.1974,-0.199,-0.1999,-0.2064,-0.2083,-0.2145,-0.217,-0.2182,-0.2209,-0.2213,-0.2279,-0.229,-0.2329,-0.2375,-0.2387,-0.2393,-0.2402,-0.2495,-0.2495,-0.2495,-0.2453,-0.245,-0.2447,0,0,0,0,0,-0.1968,-0.1983,-0.1999,-0.2013,-0.2096,-0.2145,-0.2156,-0.22,-0.2209,-0.2219,-0.2261,-0.2287,-0.2384,-0.2379,-0.2393,-0.24,-0.2495,-0.2495,-0.2495,-0.2454,-0.245,-0.2447,0,0,0,0,0,0,-0.1917,-0.1992,-0.2011,-0.2047,-0.2089,-0.2155,-0.2169,-0.2195,-0.2236,-0.2239,-0.2292,-0.2307,-0.2344,-0.2376,-0.237,-0.2429,-0.2442,-0.2445,-0.2406,-0.2404,-0.2401,-0.2393,-0.2406,0,0,0,0,0,-0.191,-0.1943,-0.2007,-0.2032,-0.2052,-0.2107,-0.213,-0.216,-0.2207,-0.2225,-0.227,-0.2315,-0.2356,-0.2381,-0.2422,-0.2457,-0.2473,-0.2469,-0.2467,-0.2464,-0.2466,-0.2489,-0.2488,-0.2496,-0.2496,-0.2496,0,0,-0.1896,-0.1941,-0.1958,-0.2023,-0.206,-0.2094,-0.2122,-0.2156,-0.2183,-0.2231,-0.2273,-0.2308,-0.2362,-0.2401,-0.242,-0.2429,-0.2468,-0.2464,-0.2462,-0.2465,-0.2489,-0.2488,-0.2487,-0.2496,-0.2496,-0.2496,0,0,-0.1888,-0.1924,-0.195,-0.1986,-0.204,-0.2076,-0.2083,-0.2145,-0.2169,-0.2212,-0.2249,-0.2283,-0.2351,-0.2388,-0.2416,-0.2423,-0.245,-0.2435,-0.2422,-0.2443,-0.2443,-0.2443,-0.2446,-0.2447,-0.2437,-0.2437,-0.2437,0,-0.1863,-0.1915,-0.196,-0.1993,-0.2021,-0.2066,-0.2093,-0.2126,-0.2191,-0.2211,-0.2219,-0.2307,-0.2346,-0.2395,-0.2397,-0.2418,-0.2428,-0.2428,-0.2439,-0.2439,-0.244,-0.2444,-0.2445,-0.2435,-0.2435,-0.2435,-0.2435,0,-0.1883,-0.1919,-0.1934,-0.1995,-0.2025,-0.2055,-0.2106,-0.2131,-0.2159,-0.2194,-0.2239,-0.2288,-0.234,-0.2354,-0.2381,-0.2407,-0.2411,-0.2428,-0.2443,-0.2436,-0.2441,-0.2443,-0.2432,-0.2433,-0.2433,-0.2434,0,0,-0.1846,-0.1932,-0.1937,-0.1966,-0.2029,-0.2059,-0.2091,-0.2141,-0.2163,-0.2207,-0.2237,-0.2294,-0.2311,-0.2342,-0.2375,-0.2393,-0.2398,-0.2409,-0.2411,-0.2406,-0.2431,-0.2418,-0.2419,-0.2415,-0.2416,-0.2416,-0.2427,0,-0.1848,-0.1907,-0.1949,-0.1993,-0.2028,-0.2071,-0.21,-0.2143,-0.2177,-0.2213,-0.2252,-0.2292,-0.231,-0.233,-0.235,-0.2392,-0.2403,-0.2392,-0.2445,-0.2447,-0.2431,-0.2421,-0.2408,-0.2415,-0.2429,-0.2429,-0.243,0,-0.1857,-0.1899,-0.1946,-0.2007,-0.2023,-0.2048,-0.2098,-0.2131,-0.2182,-0.2206,-0.2241,-0.2274,-0.2313,-0.2324,-0.2378,-0.237,-0.2394,-0.2418,-0.242,-0.2427,-0.2438,-0.2429,-0.2418,-0.242,-0.2433,-0.2433,-0.2432,0,-0.1827,-0.1895,-0.1932,-0.1955,-0.2027,-0.2044,-0.2075,-0.2126,-0.2153,-0.2198,-0.2217,-0.2265,-0.2292,-0.2329,-0.2375,-0.2379,-0.2426,-0.244,-0.2448,-0.2447,-0.2456,-0.2455,-0.245,-0.247,-0.247,-0.247,-0.247,0,-0.1825,-0.1852,-0.1919,-0.1942,-0.1975,-0.2024,-0.2055,-0.209,-0.2135,-0.2167,-0.2207,-0.2236,-0.2295,-0.2332,-0.2368,-0.2408,-0.242,-0.2442,-0.2451,-0.2439,-0.2436,-0.2456,-0.2457,-0.2471,-0.2471,-0.247,-0.247,0,-0.1796,-0.1842,-0.1886,-0.195,-0.1967,-0.1988,-0.2045,-0.2069,-0.2106,-0.2146,-0.2158,-0.2217,-0.2263,-0.2312,-0.2374,-0.2399,-0.2438,-0.2451,-0.242,-0.2426,-0.2431,-0.243,-0.2439,-0.2444,-0.246,-0.2459,-0.2459,0,-0.1792,-0.1814,-0.1881,-0.1904,-0.1934,-0.1972,-0.2,-0.205,-0.2078,-0.2138,-0.2156,-0.2204,-0.2246,-0.2317,-0.2366,-0.2414,-0.2429,-0.2429,-0.2437,-0.2424,-0.2431,-0.2429,-0.2432,-0.2427,-0.2426,-0.2426,-0.2426,0,-0.178,-0.1802,-0.1841,-0.1888,-0.1921,-0.1961,-0.2003,-0.202,-0.2078,-0.2108,-0.2155,-0.2187,-0.2251,-0.2299,-0.2353,-0.2387,-0.2417,-0.2423,-0.2427,-0.2415,-0.2397,-0.2408,-0.2415,-0.2422,-0.2423,-0.2423,-0.2423,-0.2423,-0.1765,-0.1787,-0.1837,-0.188,-0.1916,-0.1954,-0.1981,-0.2021,-0.2061,-0.2116,-0.2143,-0.219,-0.2241,-0.2317,-0.235,-0.2389,-0.2398,-0.2404,-0.2406,-0.2407,-0.2404,-0.239,-0.2399,-0.2399,-0.2399,-0.2399,-0.2399,0,-0.1756,-0.1791,-0.1829,-0.1886,-0.192,-0.1943,-0.1991,-0.2018,-0.2059,-0.2103,-0.2143,-0.2198,-0.2245,-0.2298,-0.2348,-0.2369,-0.2384,-0.2381,-0.238,-0.2388,-0.2393,-0.2384,-0.2368,-0.2368,-0.2368,-0.2368,-0.2368,-0.2368,-0.1756,-0.1795,-0.1823,-0.1881,-0.1916,-0.1961,-0.1986,-0.2022,-0.2059,-0.2117,-0.2156,-0.219,-0.2239,-0.2293,-0.2338,-0.2353,-0.237,-0.2363,-0.2382,-0.2385,-0.2388,-0.239,-0.2382,-0.2366,-0.2366,-0.2374,-0.2374,-0.2374]},{"header":{"parameterUnit":"m.s-1","parameterCategory":1,"la1":30.2991,"la2":30.254,"lo1":-89.0895,"lo2":-89.0444,"dy":0.0017,"dx":0.0017,"nx":28,"ny":28,"refTime":"2024-08-15T03:00:00:Z","depth":0,"parameterNumber":3,"parameterNumberName":"V-component_of_WINDS"},"data":[0,0,0,0,0,0,0,0,0,0,0,0,0,0,0,0,0,0,0,0,0,0,0,0,0,0,0,0,0,0,0,0,0,0,0,0,0,0,0,0,0,0,0,0,0,0,0,0,0,0,0,0,0,0,0,0,0,0,3.0161,3.016,0,3.0108,3.0107,3.0107,3.0055,3.0054,3.0054,3.0053,2.9996,2.9995,2.9994,0,0,0,0,0,0,0,0,0,0,0,0,0,3.0215,3.0214,3.0161,3.016,3.016,3.0108,3.0107,3.0107,3.0055,3.0054,3.0054,3.0053,2.9996,2.9995,2.9994,0,0,0,0,0,0,0,0,0,0,0,0,0,3.0179,3.0214,3.0161,3.0128,3.0124,3.0108,3.0107,3.0106,3.0055,3.0054,3.0053,3.0052,2.9996,2.9995,2.9994,3.0005,0,0,2.999,2.9989,0,0,0,0,0,0,0,0,3.0181,3.0177,3.0133,3.013,3.0126,3.0087,3.0105,3.0072,3.0056,3.0081,3.0053,3.0052,3.0027,3.0023,3.0015,3.0002,3.0,2.9989,2.9989,2.9988,2.9988,0,0,0,0,0,0,0,3.0184,3.0179,3.014,3.0133,3.0128,3.0115,3.0108,3.0099,3.006,3.0079,3.0075,3.007,3.0024,3.0016,3.0013,2.9999,2.9989,2.9988,2.9987,2.9987,2.9992,2.9993,0,0,0,0,0,0,3.0192,3.0182,3.0142,3.0138,3.0152,3.0114,3.0108,3.0101,3.006,3.0053,3.0071,3.0068,3.0019,3.0015,3.0011,3.002,2.9988,2.9987,2.9986,2.9991,2.9992,2.9993,0,0,0,0,0,0,3.0193,3.0189,3.0144,3.0159,3.0152,3.0115,3.0107,3.01,3.0092,3.0054,3.0046,3.007,3.0018,3.0013,3.0007,3.0018,2.9986,2.9985,2.999,2.9991,2.9993,3.004,0,0,0,0,0,0,3.0195,3.019,3.0194,3.016,3.0152,3.0142,3.0108,3.01,3.009,3.0085,3.0051,3.0044,3.0017,3.0009,3.0006,3.0015,2.9984,2.9989,2.999,2.9992,3.0038,3.0043,3.0048,0,0,0,0,0,3.0197,3.0209,3.0195,3.019,3.0157,3.0142,3.0138,3.0107,3.0091,3.0095,3.007,3.0045,3.0018,3.0009,3.0004,3.0014,2.9988,2.999,2.9992,3.0035,3.0042,3.0048,0,0,0,0,0,0,3.0245,3.0204,3.0187,3.0189,3.017,3.0134,3.0137,3.0116,3.0099,3.0096,3.0057,3.005,3.0048,3.003,3.0022,3.0022,2.9999,3.0,3.0034,3.004,3.0045,3.0048,2.9983,0,0,0,0,0,3.0257,3.0249,3.0213,3.0218,3.0209,3.0176,3.0168,3.0146,3.0124,3.0115,3.009,3.0069,3.0055,3.0047,3.0032,3.0035,3.0026,3.004,3.0045,3.0049,3.005,3.0049,3.0054,3.0,3.0,3.0,0,0,3.0279,3.0256,3.0253,3.0227,3.021,3.0202,3.0169,3.0162,3.0155,3.0114,3.0106,3.0088,3.0061,3.0059,3.0057,3.0045,3.0064,3.0052,3.0056,3.0054,3.0052,3.0057,3.0062,3.0001,3.0001,3.0001,0,0,3.0315,3.0298,3.0299,3.0282,3.0256,3.0234,3.0234,3.0201,3.0187,3.018,3.0148,3.0139,3.0117,3.0099,3.0087,3.0117,3.0092,3.0113,3.014,3.0139,3.0143,3.0147,3.0156,3.016,3.0115,3.0115,3.0115,0,3.0346,3.0334,3.0303,3.0298,3.0287,3.025,3.025,3.0235,3.0206,3.0198,3.0185,3.0156,3.0135,3.0128,3.0136,3.0128,3.0126,3.0116,3.0146,3.0149,3.0152,3.016,3.0163,3.0117,3.0117,3.0117,3.0116,0,3.0372,3.0364,3.0368,3.0341,3.0331,3.0329,3.0296,3.0289,3.0269,3.0247,3.0239,3.0214,3.0193,3.019,3.0169,3.0179,3.0172,3.0153,3.0128,3.016,3.0167,3.017,3.0121,3.012,3.0119,3.0119,0,0,3.0436,3.0392,3.0394,3.0381,3.035,3.0342,3.0338,3.0319,3.0313,3.0294,3.0288,3.027,3.0252,3.0239,3.0216,3.0216,3.0239,3.0196,3.0194,3.0203,3.0247,3.026,3.0264,3.0223,3.0224,3.0224,3.0248,0,3.0466,3.0457,3.0429,3.0428,3.0419,3.0385,3.0381,3.036,3.034,3.0329,3.0306,3.0294,3.0272,3.0263,3.0261,3.0236,3.0247,3.0234,3.0216,3.0215,3.0222,3.0268,3.0283,3.0307,3.0251,3.0251,3.0252,0,3.0499,3.0483,3.0481,3.045,3.0445,3.0442,3.0422,3.0412,3.0388,3.0373,3.0359,3.0333,3.0325,3.0304,3.0292,3.0284,3.0275,3.0262,3.0262,3.0258,3.0234,3.0263,3.0314,3.0317,3.0256,3.0256,3.0255,0,3.0544,3.0522,3.0518,3.0508,3.0472,3.047,3.0455,3.043,3.042,3.0402,3.0394,3.0375,3.0365,3.035,3.0319,3.0307,3.031,3.0287,3.0296,3.0297,3.0297,3.0297,3.0345,3.0294,3.0294,3.0294,3.0294,0,3.0579,3.0579,3.0537,3.0535,3.0533,3.0501,3.05,3.0481,3.046,3.0451,3.0421,3.0414,3.0375,3.0363,3.0339,3.0332,3.0328,3.0314,3.0308,3.0316,3.0318,3.0308,3.0305,3.0295,3.0295,3.0294,3.0294,0,3.0628,3.0601,3.0593,3.056,3.0552,3.0552,3.0523,3.0518,3.0497,3.0487,3.0483,3.0448,3.0432,3.0401,3.0377,3.0361,3.0358,3.0348,3.0367,3.0362,3.0373,3.0371,3.0415,3.0418,3.0367,3.0368,3.0368,0,3.0651,3.0651,3.0617,3.0611,3.0597,3.0586,3.0575,3.0544,3.0534,3.0506,3.0505,3.0487,3.0471,3.0447,3.0419,3.04,3.0388,3.0404,3.0384,3.0393,3.0386,3.0385,3.0384,3.0408,3.0409,3.0409,3.041,0,3.0695,3.0682,3.0669,3.0651,3.064,3.0624,3.0606,3.0602,3.0565,3.0556,3.054,3.0528,3.0503,3.0485,3.0462,3.0444,3.042,3.0417,3.0417,3.0425,3.0435,3.0428,3.0377,3.0415,3.0415,3.0414,3.0414,3.0414,3.0731,3.0728,3.0704,3.0691,3.0674,3.0658,3.0652,3.063,3.0617,3.0595,3.0577,3.0562,3.0537,3.0504,3.0488,3.0475,3.0464,3.0465,3.0465,3.0466,3.0469,3.0439,3.0471,3.0471,3.0471,3.047,3.047,0,3.0772,3.0755,3.0743,3.0719,3.0708,3.0689,3.0668,3.0659,3.0647,3.0627,3.0612,3.0593,3.0576,3.0546,3.0526,3.0521,3.051,3.0517,3.0516,3.0512,3.0481,3.0481,3.0527,3.0527,3.0527,3.0526,3.0526,3.0526,3.0791,3.0786,3.0769,3.0755,3.0737,3.0724,3.0713,3.0698,3.0681,3.0662,3.0648,3.063,3.0605,3.0583,3.0565,3.0557,3.055,3.056,3.0549,3.052,3.0514,3.0509,3.0509,3.056,3.056,3.058,3.0581,3.0581]}]]